Location: Larrial
(48.2758°N, 4.5331°W)
Time: 17:48:56
(UTC+00:00)

Cosmos 1356 Rocket - Pass Details

Date: 09 April 2020
Orbit: 542 x 599 km, 81.2° (Epoch: 28 May)

Event Time Altitude Azimuth Distance (km) Brightness Sun altitude
Exits shadow 21:49:53 76° 307° (NW) 617 3.5 -24.8°
Drops below altitude 10° 21:54:00 10° 9° (N) 1,920 6.6 -25.3°
Sets 21:56:12 0° 11° (N) 2,816 7.5 -25.5°
